Theta_e
303 303 303 303 304 304 305 305 306 306 306 306 307 307 307 308 310 310 310 319 315 309 310 312 313 312 312 313 311 317 313 314 321 314 310 310 308 311 307 312 310 309 308 306 310 305 301 320 317 310 320 322 320 319
303 302 303 303 303 303 304 305 306 306 306 306 306 307 307 307 308 310 308 314 316 309 309 316 316 316 315 315 311 322 321 322 323 315 317 315 311 311 311 304 317 308 312 311 312 310 325 323 323 326 325 320 319 319
303 302 302 302 303 303 304 304 305 305 306 306 306 306 307 307 307 308 307 310 311 309 309 311 310 317 321 320 321 310 320 332 330 328 321 317 311 309 306 310 314 316 317 313 307 316 319 322 323 324 324 321 323 321
302 302 302 302 302 303 303 304 305 305 305 305 306 306 306 307 307 307 305 309 309 308 303 307 319 317 322 321 322 322 323 328 328 327 322 318 313 321 314 316 310 315 314 313 310 314 317 317 314 322 323 321 321 321
302 302 302 302 302 302 303 304 305 305 305 305 305 305 306 306 306 307 308 309 311 307 302 304 313 315 317 320 319 323 323 322 313 314 319 317 320 320 319 318 313 320 318 312 309 317 316 313 317 318 318 320 322 322
302 302 301 301 302 302 304 304 305 304 304 305 305 305 305 306 305 306 307 315 319 316 307 301 313 313 319 322 318 319 319 320 314 315 317 321 328 322 315 311 318 321 324 325 318 321 317 318 320 321 320 322 322 321
302 302 301 301 302 302 304 304 305 304 304 305 305 305 305 305 304 301 302 311 309 311 308 304 306 314 316 319 321 320 321 319 319 317 318 320 321 323 317 312 319 319 324 322 323 324 320 322 319 322 323 321 319 319
302 302 302 301 301 302 303 305 304 303 304 305 304 305 305 305 304 302 307 306 307 307 307 302 304 309 322 314 312 321 315 317 319 318 319 318 321 325 312 321 323 324 323 323 324 326 323 324 323 321 320 318 314 313
302 302 301 301 301 302 304 304 303 303 304 303 304 304 305 304 300 308 313 312 311 306 303 306 300 302 319 316 318 319 321 315 320 315 318 319 319 312 318 323 324 323 323 323 325 324 323 321 318 317 316 315 310 307
301 301 301 301 302 303 304 303 303 303 304 304 304 303 303 309 307 312 311 306 307 306 305 301 308 304 311 315 314 318 315 315 312 317 320 314 314 326 322 323 323 324 324 325 319 318 319 316 313 312 301 302 303 298
300 300 301 302 302 303 303 303 303 303 303 306 303 303 308 313 310 307 301 301 303 301 304 304 304 302 309 305 308 315 310 312 308 312 313 312 311 312 316 316 318 318 313 313 309 305 312 311 300 299 296 295 293 294
300 301 302 302 303 303 302 302 302 302 301 299 300 304 308 306 303 298 299 302 302 300 306 305 306 308 307 310 306 311 307 307 302 315 313 308 307 312 311 311 310 310 307 302 302 298 296 296 296 294 293 292 292 292
301 301 302 303 303 303 302 302 302 303 302 305 301 299 301 301 293 294 294 298 300 306 309 308 306 309 311 310 307 307 304 305 314 311 306 303 307 308 307 305 302 302 301 299 296 295 294 294 294 293 292 292 292 292
301 302 302 303 303 302 302 303 303 302 302 297 296 289 296 295 298 299 300 302 307 311 313 314 312 311 310 306 307 302 306 307 302 302 299 301 304 303 302 302 299 295 295 293 291 292 292 292 291 292 293 293 295 295
301 302 303 302 302 302 303 303 302 301 298 296 297 290 295 300 303 306 309 311 315 319 315 311 311 311 317 311 313 309 305 303 302 297 298 297 297 295 295 295 293 292 291 290 290 290 290 291 292 293 295 296 296 295
302 301 300 302 303 303 303 303 302 301 300 298 298 296 301 301 302 306 309 309 314 315 312 307 303 301 307 309 305 303 303 296 296 297 297 296 294 294 294 293 292 292 291 291 291 292 292 293 294 294 295 296 295 295
301 299 303 302 303 304 303 299 300 297 297 295 295 300 301 302 306 309 312 311 314 311 309 310 302 302 310 307 299 296 294 295 296 296 297 296 295 294 294 292 292 292 291 293 294 296 295 296 296 295 294 295 296 296
299 302 303 303 302 301 299 298 297 297 293 296 295 299 303 306 308 309 310 311 309 307 310 308 313 306 302 299 295 294 294 294 295 295 295 295 295 294 294 294 294 295 296 296 297 296 295 295 294 292 296 297 294 295
300 302 302 302 302 299 296 297 298 293 296 299 300 301 302 306 313 312 311 311 314 312 310 309 301 297 295 296 294 294 294 294 292 294 295 296 297 297 298 298 298 298 297 296 296 294 294 295 294 294 293 293 292 292
299 300 302 302 300 295 296 297 302 296 294 300 303 301 302 306 313 312 310 309 309 307 299 294 293 295 296 297 297 296 296 297 295 293 294 296 298 299 299 299 297 297 296 296 296 292 293 293 294 294 293 292 292 292
297 300 300 300 299 296 293 296 299 300 300 298 303 304 303 312 310 307 306 307 300 295 292 293 294 297 300 300 301 300 299 300 298 298 298 297 298 297 298 297 296 295 295 294 293 292 292 292 293 293 293 293 293 293
297 300 297 298 295 297 296 301 298 303 303 302 305 307 305 304 303 305 306 298 291 289 291 293 293 294 295 296 298 300 300 299 298 296 294 295 296 295 295 295 294 293 293 293 292 292 292 293 293 293 293 293 292 293
299 298 297 297 293 293 293 302 297 301 300 304 307 304 304 303 303 305 294 292 290 291 292 292 293 295 295 297 296 295 297 299 297 296 296 296 295 295 294 294 294 293 292 292 293 293 293 291 292 292 293 293 292 291
300 295 294 293 294 291 299 298 303 302 304 300 301 298 299 299 301 297 290 289 290 290 290 292 293 291 292 293 294 296 297 297 295 295 295 295 294 294 294 294 295 294 294 293 293 293 293 293 291 292 292 291 290 289
289 291 296 289 297 294 293 297 299 299 297 297 296 294 296 300 293 291 288 287 288 288 290 292 294 293 292 293 295 295 297 296 294 293 294 295 294 295 295 295 295 295 295 292 291 292 292 292 291 291 290 290 289 288
287 295 291 295 295 296 298 297 298 299 300 299 298 298 297 292 289 286 288 290 291 291 292 292 292 292 292 298 296 294 294 296 296 294 294 294 294 292 291 291 291 292 294 293 292 291 290 291 290 289 289 288 286 288
287 292 298 303 298 298 297 298 300 300 298 296 296 294 292 286 284 286 291 292 291 295 296 296 294 295 297 296 295 296 296 296 295 294 295 296 295 295 294 291 290 292 294 293 293 291 290 290 289 288 288 289 289 289
292 293 290 292 292 292 292 291 291 292 294 296 297 292 289 287 286 289 292 296 297 296 295 296 299 300 297 296 296 296 295 297 297 297 297 296 296 296 296 295 295 286 294 294 293 292 291 290 289 289 288 288 289 290
294 296 293 288 288 288 288 287 289 293 295 296 294 288 287 292 295 294 294 294 296 295 295 297 297 297 296 296 296 295 295 295 293 290 290 290 291 293 295 295 294 294 294 293 285 287 290 290 289 289 289 289 289 289
292 294 289 287 286 286 289 291 293 296 298 297 294 292 292 293 295 296 296 297 296 296 298 298 296 296 295 295 294 294 295 295 294 292 289 289 290 294 294 293 293 293 293 292 291 291 285 289 289 290 289 288 288 287
294 292 289 288 288 291 293 295 294 295 296 295 296 293 292 293 295 298 298 299 300 298 297 295 295 296 295 294 293 293 292 294 294 294 292 293 293 293 292 292 292 292 292 291 291 290 289 289 288 287 287 287 287 286
294 291 290 288 291 296 299 297 296 295 295 294 293 295 295 295 292 296 300 299 298 296 289 295 295 293 295 295 295 293 285 294 293 292 291 290 290 290 291 292 292 292 291 290 290 289 289 288 287 287 287 286 286 286
293 296 297 296 295 295 297 297 295 294 295 294 296 297 297 296 292 297 302 303 299 297 296 296 296 296 296 295 295 293 288 294 289 284 284 283 283 285 289 291 291 290 290 289 289 288 288 287 287 287 287 286 286 285
Wind_Speed
11 11 11 13 13 14 14 15 15 17 17 18 20 21 21 21 21 13 11 10 7 10 19 26 17 13 11 8 3 4 4 16 5 6 9 7 3 8 16 11 11 9 8 10 8 11 7 5 5 9 4 7 9 10
11 11 12 12 13 13 14 14 15 16 17 18 19 20 20 20 20 18 10 12 11 11 18 26 27 24 23 19 9 5 5 5 4 6 6 6 6 5 5 8 4 5 3 4 9 2 4 2 3 5 7 6 6 6
12 12 11 12 13 14 14 13 14 15 16 17 19 20 20 19 18 14 10 10 11 11 14 15 17 16 15 18 15 8 8 5 4 6 15 5 5 6 9 3 10 3 12 8 9 9 20 13 15 10 9 8 5 6
12 12 12 12 13 14 14 13 14 15 15 17 18 19 20 19 19 16 9 10 9 8 9 10 11 11 15 9 14 17 15 7 5 7 10 8 10 2 8 3 3 10 7 13 5 7 13 9 15 17 6 6 5 3
13 12 12 12 13 14 15 14 14 14 16 17 18 19 20 20 21 15 12 10 10 8 10 14 24 29 22 16 15 14 13 11 8 4 6 9 10 6 4 4 6 3 5 5 4 3 4 7 7 22 23 4 6 12
13 12 13 13 13 14 15 15 15 15 16 17 18 19 20 19 19 10 4 5 6 7 5 7 10 15 15 13 16 17 11 8 8 5 7 9 1 10 13 10 11 9 9 8 2 4 8 9 12 22 16 10 9 7
13 12 13 13 13 14 15 16 15 16 17 18 19 20 20 17 9 7 7 7 14 9 6 7 7 13 19 12 9 9 11 8 7 9 10 10 8 3 7 14 13 14 6 1 1 2 4 6 8 6 12 12 11 10
13 13 13 13 14 14 15 14 15 17 18 18 20 22 22 20 18 10 12 21 12 6 6 7 9 11 13 10 11 9 9 9 9 9 8 10 6 2 5 5 12 11 4 6 3 3 4 5 10 11 13 10 9 9
14 12 13 14 14 14 15 13 15 17 18 20 23 29 10 7 6 2 5 9 8 7 6 6 10 10 3 10 11 10 9 7 6 11 12 8 6 7 7 7 9 3 3 7 2 7 10 10 12 10 11 10 9 10
13 13 14 14 14 14 13 13 15 17 21 23 12 7 5 4 3 3 4 6 8 7 7 11 13 16 10 8 6 4 5 2 7 11 10 8 11 6 11 10 13 16 9 8 8 8 9 9 9 5 17 13 16 14
14 14 14 15 14 14 11 11 13 16 19 1 4 3 8 6 5 6 6 8 10 8 9 12 17 17 12 12 4 4 1 5 9 11 10 7 4 9 12 12 13 14 17 17 19 20 14 13 15 15 14 12 11 10
15 15 14 13 12 11 9 9 10 8 6 7 8 10 6 6 7 7 8 8 10 15 10 13 14 14 8 7 7 8 5 5 10 5 6 3 4 7 11 14 13 15 18 20 20 21 20 19 13 13 11 10 7 5
15 14 13 13 12 9 8 8 9 10 13 8 5 5 6 7 5 8 10 11 13 12 12 11 11 12 11 9 8 5 7 10 7 6 6 4 6 7 11 12 14 16 17 18 18 17 16 15 13 11 9 6 1 3
14 14 14 13 10 9 9 10 9 8 4 4 6 6 7 8 9 13 13 13 9 9 10 11 9 8 7 10 5 7 10 8 12 4 7 4 6 10 12 13 13 14 14 15 15 13 12 10 8 3 3 6 9 6
14 14 11 11 10 10 9 9 6 4 3 6 6 7 11 12 14 12 8 12 8 9 9 6 7 8 0 3 4 6 2 0 8 6 3 7 10 12 12 12 11 10 10 9 8 6 5 2 5 7 8 4 3 5
11 7 10 11 14 12 8 8 7 3 5 7 8 10 12 13 10 9 10 5 5 8 5 4 1 6 10 8 8 4 6 7 3 3 6 7 10 10 10 9 9 8 7 5 3 3 5 8 4 5 4 4 3 5
13 5 12 15 10 9 6 4 3 7 7 8 7 12 13 13 10 8 7 7 7 6 4 4 12 13 4 7 6 5 3 3 6 6 6 9 10 9 8 8 8 6 5 4 7 9 2 5 6 6 6 5 6 6
8 9 9 10 10 7 5 5 5 7 11 9 12 12 10 7 10 8 7 7 5 5 5 4 7 6 7 5 4 3 3 6 7 6 6 7 8 8 6 6 5 5 5 5 5 4 3 7 7 5 5 5 7 7
5 3 10 8 2 1 5 9 7 7 8 11 12 12 11 7 3 3 5 5 3 4 6 5 7 5 4 4 5 7 6 5 7 5 5 5 5 6 6 6 6 6 3 4 2 2 2 4 6 5 7 7 8 8
4 4 8 5 3 3 7 6 9 7 11 7 10 11 9 6 4 4 4 7 4 3 6 6 4 4 3 5 6 6 6 6 6 6 5 5 4 6 5 1 3 2 5 7 5 3 6 6 7 7 8 7 8 8
6 7 7 3 2 5 4 6 6 8 10 11 12 8 6 1 3 3 5 6 6 5 4 4 4 6 8 7 7 7 8 6 3 4 6 6 4 4 6 4 3 3 3 4 5 5 5 6 7 7 7 8 8 8
3 8 4 4 4 4 7 8 6 7 9 10 9 4 3 3 1 3 3 6 5 3 4 2 4 5 4 5 4 4 5 5 4 5 4 3 4 3 2 4 6 7 6 6 7 6 5 5 6 5 8 8 8 9
10 7 5 7 7 6 9 9 7 6 6 3 4 4 3 3 3 3 4 4 3 3 2 2 3 5 4 6 7 3 4 6 5 4 3 4 4 4 4 5 5 5 6 6 5 5 6 5 3 6 8 9 10 10
9 6 7 9 12 6 6 6 7 6 3 5 1 5 3 3 2 3 4 3 3 3 3 4 3 4 5 3 3 3 4 4 5 5 5 3 3 5 3 3 2 4 4 5 6 6 7 8 8 9 10 11 10 10
6 7 6 7 6 7 8 9 12 6 4 4 2 3 3 1 2 2 3 5 7 5 5 5 5 4 3 2 4 5 5 5 4 5 4 5 5 3 2 4 4 7 7 7 7 8 9 9 10 11 11 10 11 12
9 7 7 5 9 6 5 5 4 5 5 5 4 3 3 2 2 4 3 6 6 7 6 5 6 6 5 2 5 6 6 6 3 5 5 5 6 6 6 6 6 7 8 6 7 9 11 10 11 13 13 14 8 11
5 5 2 2 3 4 3 4 4 3 3 2 4 4 3 2 2 2 2 4 6 4 8 6 4 8 5 6 6 5 6 6 6 5 5 4 4 5 5 5 5 7 6 7 8 10 10 10 12 12 11 11 11 10
6 3 3 5 3 4 3 2 4 4 3 2 1 2 2 2 2 4 3 9 9 6 5 7 6 5 5 4 3 5 4 3 6 5 4 6 5 5 5 5 5 5 4 5 6 8 8 9 10 11 12 12 11 11
2 1 3 3 2 2 2 1 1 2 3 4 2 3 3 1 6 8 7 6 5 6 6 5 5 4 5 5 4 5 6 5 6 5 4 5 5 6 6 6 7 7 8 7 4 3 5 7 9 10 10 10 11 11
2 2 3 2 2 2 2 4 2 1 3 6 6 10 10 10 8 7 7 8 8 7 4 5 5 4 2 2 7 6 5 6 6 6 6 5 6 7 8 8 7 7 7 7 8 9 3 7 8 9 10 10 9 10
3 2 2 2 1 3 5 6 5 5 9 12 12 12 13 10 9 7 7 7 5 5 5 4 4 4 3 3 4 2 8 8 8 10 7 7 7 7 6 7 7 7 7 9 8 8 9 9 8 10 11 12 13 11
3 4 5 5 7 8 10 10 11 11 12 12 12 12 11 9 8 5 5 6 6 6 4 1 5 5 4 5 7 5 2 8 7 7 8 7 6 6 6 6 7 6 8 9 8 9 10 11 10 11 11 14 15 14
7 10 11 13 13 15 12 12 12 11 9 9 8 7 8 6 5 4 1 1 4 5 5 5 5 6 5 6 5 5 3 9 10 8 5 3 3 5 6 5 6 7 9 9 9 10 11 13 12 14 14 15 16 15
Wind_Direction
295 299 305 311 316 322 323 327 330 331 334 338 340 342 342 341 338 338 299 286 301 302 294 282 294 320 331 317 43 106 122 283 235 249 269 265 143 247 190 223 265 247 228 246 248 259 306 163 167 220 96 155 204 211
286 293 296 303 308 311 315 320 323 325 329 333 336 337 337 338 335 338 289 341 327 292 288 296 284 275 260 260 272 200 268 245 335 1 340 328 317 339 304 271 304 225 281 288 14 8 184 289 260 126 159 201 208 225
279 287 292 298 303 305 309 312 316 318 322 326 328 330 331 331 332 333 301 304 290 287 287 262 269 261 229 218 221 238 231 317 15 118 278 180 181 97 280 265 248 195 40 35 22 350 351 357 329 305 177 227 188 194
274 281 288 295 300 303 305 305 308 310 313 317 319 323 325 324 324 320 287 297 290 284 287 289 335 302 313 241 203 208 262 282 316 290 285 292 285 349 310 65 78 305 124 181 225 262 280 346 354 316 304 223 183 82
271 278 284 293 297 301 300 300 305 305 306 309 314 317 321 323 322 303 271 258 253 263 305 303 307 285 266 254 251 205 213 240 264 262 270 269 278 284 267 301 237 273 63 231 257 359 184 264 243 253 285 146 79 95
267 275 283 286 293 297 300 301 301 300 300 303 309 312 316 321 327 302 277 131 5 356 283 288 324 287 269 224 220 225 223 214 230 251 258 267 56 46 317 277 279 289 247 226 264 179 187 199 241 241 234 117 139 132
263 271 278 281 292 296 300 300 294 298 301 302 306 307 305 307 300 272 330 324 324 324 260 267 269 227 224 233 219 225 205 222 224 241 241 270 271 170 270 268 288 286 252 115 184 216 229 164 167 154 96 85 86 98
262 264 276 278 288 291 296 294 293 299 300 300 300 296 295 294 280 255 238 239 239 265 269 270 270 282 202 217 223 201 209 209 227 241 244 243 250 101 260 278 273 269 352 301 290 152 159 182 120 104 112 118 129 129
262 265 273 278 284 288 296 289 296 300 297 297 296 293 278 203 232 63 100 117 184 263 293 255 256 278 232 220 235 192 199 203 228 218 240 222 216 221 236 287 307 93 230 287 131 162 133 143 146 151 153 152 129 128
257 265 270 274 280 282 285 291 300 303 298 295 283 242 210 26 332 183 183 206 197 210 223 260 276 282 287 269 297 63 344 274 202 234 235 201 228 134 54 33 14 5 1 12 136 154 154 131 115 108 87 57 77 88
255 260 265 271 269 279 279 292 304 315 284 255 276 351 321 321 268 218 236 207 190 214 208 230 231 255 258 266 268 56 66 220 235 223 202 219 182 60 63 59 48 52 51 55 52 50 47 95 105 93 82 79 84 85
253 256 263 265 268 270 277 289 304 289 353 312 288 277 261 249 221 238 232 216 236 214 240 221 226 216 236 235 259 176 145 133 253 358 345 78 80 71 78 74 65 62 62 57 54 59 61 61 69 88 90 83 73 96
251 255 261 263 263 254 265 274 279 293 291 279 212 247 236 229 251 236 230 224 217 244 228 228 224 209 198 233 231 243 231 202 221 170 150 70 106 89 90 81 67 57 62 66 63 62 64 68 63 61 71 61 175 213
248 249 255 256 238 245 249 267 283 301 287 249 233 236 242 213 220 222 246 259 339 346 320 342 294 212 183 201 216 222 234 257 263 256 72 113 84 71 79 78 77 71 69 69 67 65 65 67 71 76 143 219 244 246
241 253 232 220 230 231 248 253 270 268 267 253 237 240 236 258 284 296 353 330 3 351 359 3 333 322 39 132 341 282 217 298 21 54 48 74 73 77 80 83 82 77 72 69 69 72 81 124 209 201 207 238 336 340
214 207 222 224 201 218 229 251 245 222 249 243 229 256 282 287 332 357 311 314 16 319 93 112 269 283 234 154 135 0 350 35 56 60 95 94 94 94 93 97 102 98 89 84 91 204 220 237 248 12 335 319 325 315
189 248 172 184 178 190 200 247 227 222 248 240 236 237 256 283 313 315 320 345 333 296 269 247 188 212 321 53 64 31 38 89 109 90 85 96 103 109 106 102 109 128 153 183 232 231 54 23 6 315 298 340 314 303
223 158 148 164 192 183 198 219 254 247 234 249 264 266 283 341 308 317 349 357 353 327 297 339 302 7 25 43 92 107 109 80 78 84 86 91 95 106 120 130 149 182 203 210 264 9 338 34 324 344 304 322 317 312
47 208 158 158 127 283 214 203 219 265 262 235 249 259 266 271 271 284 308 311 296 245 301 355 44 34 54 74 101 111 114 110 112 104 103 109 130 156 160 182 182 202 166 63 347 342 286 332 300 343 347 2 353 330
252 19 102 104 157 259 263 227 187 246 274 276 252 241 252 256 290 255 9 355 2 38 43 39 21 2 40 78 91 102 106 115 117 120 139 169 180 197 209 260 85 111 217 214 212 287 11 335 2 13 11 327 296 340
184 169 136 232 214 205 276 283 265 253 237 244 276 245 202 119 267 345 21 20 45 23 68 57 54 73 82 92 106 121 136 163 131 150 164 161 141 150 170 158 225 275 316 14 18 20 350 351 28 358 332 327 351 316
187 153 182 188 249 231 248 244 234 291 288 263 269 219 155 132 139 44 35 46 52 32 359 64 67 51 55 100 146 146 106 99 85 108 113 142 146 122 121 36 14 13 7 19 21 347 342 8 15 328 324 343 331 351
142 174 228 197 221 233 251 231 243 237 259 226 226 200 143 102 80 91 81 72 75 35 56 77 110 194 136 94 93 136 207 225 83 71 74 72 87 35 39 65 46 24 14 18 346 354 349 338 66 302 331 350 354 346
274 207 223 201 195 246 297 241 226 237 278 352 34 102 115 102 127 59 83 76 89 174 176 190 154 108 101 167 183 128 79 99 100 70 10 347 74 87 35 31 45 72 50 353 349 354 342 351 351 356 358 347 348 346
200 238 218 244 210 220 237 244 236 209 166 177 192 128 131 132 99 81 107 136 162 167 181 196 120 90 114 174 127 94 347 25 68 89 45 34 353 331 80 41 54 67 46 7 348 337 356 353 356 354 342 337 340 334
225 224 196 234 226 224 241 265 246 193 158 154 95 96 70 100 122 117 121 138 130 114 96 111 172 195 223 224 82 61 40 1 354 87 59 30 38 16 19 7 8 58 23 338 328 359 349 351 352 342 336 336 337 333
245 249 246 186 302 309 300 337 304 342 69 104 135 128 124 122 121 111 112 109 108 150 193 203 218 247 85 94 87 68 64 58 21 24 52 50 74 61 26 14 5 37 337 332 359 355 351 356 351 338 328 332 340 342
236 249 289 357 47 1 318 18 348 349 15 27 204 75 87 76 100 150 162 169 180 168 199 223 236 74 70 78 96 119 106 156 167 231 263 183 136 108 66 13 40 178 307 14 10 354 1 348 336 336 342 336 337 342
245 22 106 35 38 37 348 357 306 300 305 296 79 94 108 150 125 125 133 148 173 184 195 169 112 123 130 111 74 55 58 32 16 27 8 16 20 24 23 14 7 355 4 0 157 5 11 345 324 332 334 328 345 354
98 29 111 49 12 296 257 211 259 36 35 79 103 115 107 103 114 132 153 173 172 190 147 133 174 192 123 133 121 104 94 79 41 24 12 11 2 21 20 6 345 355 6 354 351 356 152 315 355 349 349 344 341 341
107 117 118 180 117 118 120 121 136 147 113 104 109 109 113 126 136 162 175 186 142 128 164 139 99 66 55 44 31 360 112 87 75 70 14 352 18 23 1 335 1 7 351 358 349 350 345 339 347 340 342 339 339 344
142 156 167 151 163 180 156 113 109 107 111 111 113 122 136 131 122 143 162 180 167 100 41 109 122 94 58 90 97 86 13 75 62 51 34 12 9 1 340 347 19 351 359 346 338 348 347 350 348 348 346 347 349 356
177 191 128 124 128 125 126 120 116 119 128 134 145 144 132 123 115 132 134 1 132 124 102 95 100 78 70 47 62 115 154 97 101 105 113 94 16 340 306 18 19 357 356 341 356 357 347 350 348 351 354 356 349 358